Thessaloniki, Greece

7:22 AM EEST on May 25, 2017 (GMT +0300)
Makedonia

Weather History for LGTS - January, 2014

Change the Weather History Date:

Tuesday, January 21, 2014

  Actual Average Record
Temperature  
Mean Temperature 55 °F -  
Max Temperature 65 °F 51 °F 109 °F (2006)
Min Temperature 45 °F 35 °F 24 °F (2000)
Degree Days  
Heating Degree Days 10    
Growing Degree Days 5 (Base 50)    
Moisture  
Dew Point 42 °F    
Average Humidity 66    
Maximum Humidity 94    
Minimum Humidity 29    
Precipitation  
Precipitation 0.00 in 0.05 in - ()
Sea Level Pressure  
Sea Level Pressure 29.75 in    
Wind  
Wind Speed 6 mph ()    
Max Wind Speed 22 mph    
Max Gust Speed 26 mph    
Visibility 4.9 miles    
Events Fog    
Averages and records for this station are not official NWS values.
T = Trace of Precipitation, MM = Missing Value Source: Averaged Metar Reports

Daily Weather History Graph

Daily Weather History Graph

Search for Another Location

Airport or City:

Trip Planner

Search our weather history database for the weather conditions in past years. The results will help you decide how hot, cold, wet, or windy it might be!

Date:

Astronomy

Jan. 21, 2014 Rise Set
Actual Time 7:46 AM EET 5:32 PM EET
Civil Twilight 7:16 AM EET 6:02 PM EET
Nautical Twilight 6:43 AM EET 6:35 PM EET
Astronomical Twilight 6:11 AM EET 7:08 PM EET
Moon 10:48 PM EET (1/21) 10:05 AM EET (1/21)
Length of Visible Light 10h 45m
Length of Day
9h 46m
Waning Gibbous, 77% of the Moon is Illuminated
Jan 21
Waning Gibbous
Jan 24
Last Quarter
Jan 30
New
Feb 6
First Quarter
Feb 15
Full

Hourly Weather History & Observations

Time (EET) Temp. Windchill Dew Point Humidity Pressure Visibility Wind Dir Wind Speed Gust Speed Precip Events Conditions
12:20 AM 46.4 °F - 44.6 °F 93% 29.80 in 3.1 mi Variable 2.3 mph - N/A   Scattered Clouds
12:50 AM 46.4 °F 45.2 °F 44.6 °F 93% 29.80 in 3.1 mi Variable 3.5 mph - N/A   Scattered Clouds
1:20 AM 50.0 °F - 48.2 °F 94% 29.80 in 3.1 mi WNW 5.8 mph - N/A   Scattered Clouds
1:50 AM 46.4 °F - 44.6 °F 93% 29.77 in 3.1 mi Calm Calm - N/A   Scattered Clouds
2:00 AM 46 °F - 44 °F 91% 29.80 in 2 mi Calm Calm - -   Mist
2:20 AM 46.4 °F - 44.6 °F 93% 29.77 in 0.9 mi Calm Calm - N/A   Mostly Cloudy
2:50 AM 44.6 °F 43.1 °F 42.8 °F 93% 29.77 in 0.6 mi Variable 3.5 mph - N/A   Mostly Cloudy
3:20 AM 46.4 °F 45.2 °F 44.6 °F 93% 29.77 in 0.1 mi Variable 3.5 mph - N/A Fog Fog
3:50 AM 48.2 °F - 46.4 °F 93% 29.74 in 0.9 mi West 4.6 mph - N/A   Scattered Clouds
4:20 AM 50.0 °F - 48.2 °F 94% 29.74 in 3.1 mi Variable 2.3 mph - N/A   Mostly Cloudy
4:50 AM 50.0 °F - 48.2 °F 94% 29.74 in 3.7 mi NW 6.9 mph - N/A   Mostly Cloudy
5:00 AM 50 °F - 48 °F 91% 29.76 in 2 mi NW 6.9 mph - -   Mist
5:20 AM 50.0 °F - 48.2 °F 94% 29.74 in 3.7 mi WNW 9.2 mph - N/A   Mostly Cloudy
6:20 AM 51.8 °F - 48.2 °F 88% 29.74 in 4.3 mi North 8.1 mph - N/A   Scattered Clouds
6:50 AM 51.8 °F - 48.2 °F 88% 29.74 in 4.3 mi Variable 3.5 mph - N/A   Scattered Clouds
7:20 AM 50.0 °F - 46.4 °F 87% 29.77 in 4.3 mi Variable 2.3 mph - N/A   Mostly Cloudy
7:50 AM 50.0 °F - 48.2 °F 94% 29.77 in 4.3 mi Variable 3.5 mph - N/A   Scattered Clouds
8:00 AM 49 °F - 47 °F 92% 29.77 in 4 mi 3.5 mph - -   Mist
8:20 AM 48.2 °F - 46.4 °F 93% 29.77 in 3.7 mi Variable 3.5 mph - N/A   Scattered Clouds
8:50 AM 48.2 °F - 46.4 °F 93% 29.77 in 3.7 mi Variable 2.3 mph - N/A   Scattered Clouds
9:20 AM 53.6 °F - 50.0 °F 88% 29.77 in 4.3 mi East 4.6 mph - N/A   Scattered Clouds
9:50 AM 59.0 °F - 50.0 °F 72% 29.77 in 6.2 mi East 6.9 mph - N/A   Partly Cloudy
10:20 AM 60.8 °F - 46.4 °F 59% 29.77 in 6.2 mi ESE 8.1 mph - N/A   Partly Cloudy
10:50 AM 62.6 °F - 41.0 °F 45% 29.77 in 6.2 mi SSE 8.1 mph - N/A   Partly Cloudy
11:00 AM 62 °F - 42 °F 36% 29.78 in 6 mi SSE 8.1 mph - -   Scattered Clouds
11:20 AM 62.6 °F - 41.0 °F 45% 29.77 in 6.2 mi South 13.8 mph - N/A   Partly Cloudy
11:50 AM 62.6 °F - 41.0 °F 45% 29.77 in 6.2 mi South 15.0 mph - N/A   Partly Cloudy
12:20 PM 64.4 °F - 37.4 °F 37% 29.74 in 6.2 mi South 15.0 mph 26.5 mph N/A   Partly Cloudy
12:50 PM 64.4 °F - 41.0 °F 42% 29.74 in 6.2 mi South 18.4 mph - N/A   Partly Cloudy
1:20 PM 64.4 °F - 39.2 °F 40% 29.71 in 6.2 mi South 20.7 mph - N/A   Partly Cloudy
1:50 PM 64.4 °F - 39.2 °F 40% 29.71 in 6.2 mi South 21.9 mph - N/A   Partly Cloudy
2:00 PM 64 °F - 40 °F 29% 29.73 in 6 mi South 21.9 mph - -   Scattered Clouds
2:20 PM 66.2 °F - 37.4 °F 35% 29.71 in 6.2 mi South 18.4 mph - N/A   Partly Cloudy
2:50 PM 66.2 °F - 37.4 °F 35% 29.68 in 6.2 mi South 19.6 mph - N/A   Partly Cloudy
3:20 PM 64.4 °F - 35.6 °F 34% 29.71 in 6.2 mi SSW 18.4 mph - N/A   Partly Cloudy
3:50 PM 62.6 °F - 37.4 °F 39% 29.71 in 6.2 mi South 18.4 mph - N/A   Scattered Clouds
4:20 PM 62.6 °F - 35.6 °F 37% 29.71 in 6.2 mi SSW 17.3 mph - N/A   Scattered Clouds
4:50 PM 62.6 °F - 37.4 °F 39% 29.74 in 6.2 mi South 15.0 mph - N/A   Scattered Clouds
5:00 PM 62 °F - 38 °F 29% 29.74 in 6 mi South 15.0 mph - -   Partly Cloudy
5:20 PM 60.8 °F - 39.2 °F 45% 29.74 in 6.2 mi SSW 6.9 mph - N/A   Mostly Cloudy
5:50 PM 59.0 °F - 41.0 °F 51% 29.74 in 6.2 mi South 11.5 mph - N/A   Mostly Cloudy
6:20 PM 57.2 °F - 39.2 °F 51% 29.74 in 6.2 mi South 6.9 mph - N/A   Mostly Cloudy
6:50 PM 57.2 °F - 39.2 °F 51% 29.74 in 6.2 mi South 5.8 mph - N/A   Mostly Cloudy
7:20 PM 55.4 °F - 39.2 °F 54% 29.74 in 6.2 mi South 8.1 mph - N/A   Mostly Cloudy
7:50 PM 53.6 °F - 39.2 °F 58% 29.74 in 6.2 mi East 6.9 mph - N/A   Mostly Cloudy
8:00 PM 53 °F - 40 °F 50% 29.76 in 6 mi East 6.9 mph - -   Scattered Clouds
8:20 PM 53.6 °F - 41.0 °F 62% 29.77 in 6.2 mi ENE 5.8 mph - N/A   Scattered Clouds
8:50 PM 53.6 °F - 41.0 °F 62% 29.74 in 6.2 mi SE 4.6 mph - N/A   Scattered Clouds
9:20 PM 51.8 °F - 41.0 °F 67% 29.74 in 6.2 mi ESE 5.8 mph - N/A   Scattered Clouds
9:50 PM 50.0 °F - 41.0 °F 71% 29.74 in 6.2 mi ESE 5.8 mph - N/A   Scattered Clouds
10:20 PM 50.0 °F - 41.0 °F 71% 29.77 in 6.2 mi SE 5.8 mph - N/A   Scattered Clouds
10:50 PM 50.0 °F - 39.2 °F 66% 29.77 in 6.2 mi ESE 6.9 mph - N/A   Partly Cloudy
11:00 PM 50 °F - 39 °F 56% 29.78 in 6 mi ESE 6.9 mph - -   Scattered Clouds
11:20 PM 48.2 °F - 39.2 °F 71% 29.77 in 6.2 mi East 5.8 mph - N/A   Partly Cloudy
11:50 PM 46.4 °F 42.9 °F 39.2 °F 76% 29.77 in 6.2 mi East 6.9 mph - N/A   Partly Cloudy